Tracking 33747 objects as of 11-Apr-2026
HD Live streaming from Space Station
objects crossing your sky now

STARLINK-36326

Track STARLINK-36326 now!
10-day predictions
STARLINK-36326 is classified as:


NORAD ID: 68519
Int'l Code: 2026-068M
Perigee: 334.7 km
Apogee: 335.8 km
Inclination: 53.2 °
Period: 91.1 minutes
Semi major axis: 6706 km
RCS: Unknown
Launch date: March 30, 2026
Source: United States (US)
Launch site: AIR FORCE EASTERN TEST RANGE (AFETR)
Your satellite tracking list
Your tracking list is empty




NASA's NSSDC Master Catalog

Two Line Element Set (TLE):
1 68519U 26068M   26101.16668980  .00094603  00000-0  47848-3 0  9991
2 68519  53.1596 346.4828 0000841 105.8796 320.1210 15.80833244  3037
Source of the keplerian elements: AFSPC